Flag for Germany Weather past 2 weeks in Willich, North Rhine-Westphalia, Germany

Now
57 °F

Clear.


Feels Like: 56 °F
Forecast: 51 / 66 °F
Wind: 6 mph from Northeast

Location: Monchengladbach Airport


UV Index: 3 (Moderate)

Visibility: 4 mi


Pressure: 29.89 "Hg

Humidity: 100%

Dew point: 57 °F

Location of WillichLocation

Historic Weather in Willich

°F

Willich temperature yesterday

Maximum temperature yesterday: 72 °F (at 4:20 PM)
Minimum temperature yesterday: 52 °F (at 7:50 AM)
Average temperature yesterday: 65 °F

Past Weeks' High & Low Weather Summary

 TemperatureHumidityPressure
High72 °F (Apr 20, 4:20 PM)100% (Apr 11, 7:50 AM)30.45 "Hg (Apr 11, 7:50 AM)
Low32 °F (Apr 16, 7:50 AM)26% (Apr 17, 4:20 PM)29.62 "Hg (Apr 21, 2:50 PM)
Average56 °F64%30.04 "Hg
* Reported Apr 10 8:20 AM — Apr 25 8:50 AM, Willich, Weather by CustomWeather, © 2014

Note: Actual official high and low records may vary slightly from our data, if they occured in-between our weather recording intervals... More about our weather records

Advertising

Historic Weather Conditions — Data for Previous 24 hours

 ConditionsComfort  
Time TempWeatherWind HumidityBarometerVisibility
8:50 AM
Apr 25
55 °FClear.6 mph100%29.89 "Hg4 mi
8:20 AM54 °FFog.5 mph100%29.89 "Hg3 mi
7:50 AM54 °FSunny.3 mph100%29.89 "Hg10 mi
8:20 PM
Apr 24
63 °FPassing clouds.3 mph64%29.98 "HgN/A
7:50 PM64 °FClear.3 mph56%29.98 "Hg10 mi
7:20 PM66 °FPassing clouds.9 mph49%29.98 "HgN/A
6:50 PM66 °FPassing clouds.8 mph52%29.98 "HgN/A
6:20 PM68 °FScattered showers. Passing clouds.13 mph49%29.98 "HgN/A
5:50 PM70 °FClear.10 mph46%29.98 "Hg10 mi
5:20 PM72 °FClear.3 mph41%29.98 "Hg10 mi
4:50 PM72 °FPassing clouds.7 mph38%30.01 "HgN/A
4:20 PM72 °FPassing clouds.6 mph38%30.01 "HgN/A
3:50 PM70 °FPassing clouds.7 mph43%30.04 "HgN/A
3:20 PM68 °FClear.2 mph53%30.04 "Hg10 mi
2:50 PM68 °FClear.3 mph53%30.04 "Hg10 mi
2:20 PM66 °FClear.3 mph64%30.07 "Hg10 mi
1:50 PM66 °FPassing clouds.5 mph64%30.07 "HgN/A
1:20 PM66 °FPassing clouds.5 mph68%30.07 "HgN/A
12:50 PM64 °FPassing clouds.5 mph73%30.07 "HgN/A
12:20 PM66 °FPassing clouds.5 mph73%30.09 "HgN/A
11:50 AM63 °FSunny.6 mph77%30.09 "Hg10 mi
11:20 AM64 °FSunny.2 mph73%30.09 "Hg10 mi
10:50 AM63 °FSunny.3 mph73%30.09 "Hg10 mi
10:20 AM61 °FPassing clouds.5 mph83%30.09 "HgN/A
9:50 AM61 °FSunny.3 mph77%30.09 "Hg10 mi
9:20 AM59 °FSunny.5 mph82%30.09 "Hg10 mi
Weather by CustomWeather, © 2014

See weather overview